Probability
26 24 22 19 15 14 15 15 12 9 9 9 8 8 10 12 13 14 12 9 7 6 6 5 6 6 6 7 7 7 6 5 4 2 1 1 1 2 1 0 0 0 0
27 25 22 19 16 14 15 15 14 13 12 11 10 10 10 12 13 13 13 12 10 9 7 7 7 8 8 8 9 8 8 7 6 5 4 4 3 3 2 0 0 0 0
24 22 19 16 14 14 14 15 15 14 13 12 11 11 12 13 14 14 15 14 13 11 10 9 9 10 10 11 11 11 10 10 9 8 8 7 5 4 2 1 0 0 0
20 19 16 13 12 12 13 13 13 12 12 12 12 12 13 15 15 15 14 14 12 10 10 9 9 9 10 11 12 11 10 9 9 9 9 8 7 5 4 3 2 1 0
22 20 17 14 12 11 12 13 13 13 15 16 16 16 17 16 14 12 11 11 9 7 7 6 6 6 6 7 8 7 6 6 7 7 6 6 7 7 5 4 3 2 1
27 25 23 19 16 15 15 16 17 17 18 19 19 19 19 18 13 9 8 8 7 5 4 3 2 2 2 2 2 2 2 4 5 5 4 4 5 6 4 3 3 3 3
30 29 27 23 21 21 21 22 23 22 21 21 21 21 21 19 14 9 6 6 5 4 4 3 2 2 1 1 0 0 1 3 4 4 3 3 4 4 2 2 2 3 3
31 29 26 23 24 27 28 28 28 26 24 22 22 22 22 19 15 9 5 4 4 4 5 5 5 4 3 1 1 1 2 3 3 3 3 3 3 2 1 0 1 2 3
30 28 26 25 27 29 30 30 29 28 26 24 23 23 21 18 13 7 4 5 6 6 6 6 6 6 4 2 2 4 4 4 4 4 4 3 2 1 0 0 1 2 3
29 29 29 29 30 30 30 29 28 27 27 26 23 22 20 15 11 6 4 6 8 7 7 8 7 7 5 3 2 4 5 5 6 6 5 4 2 1 0 0 1 2 3
30 31 31 31 30 30 30 29 29 28 27 26 23 20 17 14 11 7 4 5 8 9 10 10 9 6 4 2 1 2 4 4 5 5 6 5 4 2 1 1 1 3 3
31 31 31 30 30 31 31 30 28 28 27 25 22 19 16 14 12 8 4 2 6 10 11 11 9 5 2 0 0 0 1 1 2 3 4 5 5 3 3 3 3 4 4
31 30 30 31 31 31 31 29 27 27 26 23 21 18 16 13 11 8 4 1 3 7 9 8 6 3 1 0 0 0 0 0 1 1 2 3 3 3 3 4 5 5 5
31 30 30 29 29 28 27 26 27 27 25 21 20 19 17 14 11 9 6 2 1 2 3 3 2 1 0 0 0 0 0 0 0 0 1 1 1 1 2 3 5 6 5
30 29 27 26 25 23 22 22 23 25 22 20 20 20 18 14 11 9 6 3 0 0 0 0 0 0 0 0 0 0 0 0 0 0 0 0 0 0 1 1 3 4 4
29 28 26 23 22 21 20 19 18 18 16 14 15 16 13 11 8 5 2 1 0 0 0 1 1 1 1 0 0 0 0 0 0 0 0 0 0 0 0 0 1 2 3
28 28 25 22 20 19 18 17 15 13 9 7 7 8 6 5 3 1 0 0 0 0 1 2 2 2 1 0 0 0 0 0 0 0 0 0 0 0 0 0 0 1 1
25 25 23 21 19 18 17 16 15 13 10 7 5 3 2 1 1 0 0 0 0 1 2 3 3 2 1 0 0 0 0 0 0 0 0 0 0 0 0 0 0 0 0
19 20 21 20 18 17 16 16 15 15 14 11 7 3 1 0 0 0 0 1 1 2 3 3 2 1 0 0 0 0 0 0 0 0 0 0 0 0 0 0 0 0 0
13 15 18 18 17 17 17 16 15 16 17 14 10 5 3 2 1 1 1 2 3 3 3 2 1 0 0 0 0 0 0 0 0 0 0 0 0 0 0 0 0 0 0
12 14 16 16 16 16 16 15 16 17 18 16 11 6 4 4 3 2 2 3 3 2 2 1 0 0 0 0 0 0 0 0 0 0 0 0 0 0 0 0 0 0 0
14 14 15 15 15 15 15 15 15 17 18 16 11 5 2 3 3 2 3 2 1 1 1 0 0 0 0 0 0 0 0 0 0 0 0 0 0 0 0 0 0 0 0
13 13 13 14 14 14 14 14 13 13 14 13 9 4 2 2 2 2 2 1 0 0 0 0 0 0 0 0 0 0 0 0 0 0 0 0 0 0 0 0 0 0 0
10 11 12 12 13 13 12 11 10 9 10 10 9 6 3 2 2 1 1 0 0 0 0 0 0 0 0 0 0 0 0 0 0 0 0 0 0 0 0 0 0 0 0
6 7 8 9 10 9 9 7 7 6 7 7 8 7 4 2 1 0 0 0 0 0 0 0 0 0 0 0 0 0 0 0 0 0 0 0 0 0 0 0 0 0 0
2 3 5 7 8 7 7 6 5 6 6 6 7 6 3 1 0 0 0 0 0 0 0 0 0 0 0 0 0 0 0 0 0 0 0 0 0 0 0 0 0 0 0
Wind_Speed
6 5 5 4 4 4 3 4 3 3 3 3 3 3 2 2 2 2 2 1 1 1 1 1 2 1 1 1 1 1 1 2 2 3 2 1 1 1 2 1 2 2 2
6 5 4 4 3 3 3 3 3 3 2 3 2 2 2 2 2 2 3 2 2 2 2 2 2 2 2 2 1 1 2 2 2 2 2 1 2 2 1 1 1 1 2
6 5 5 4 4 3 4 3 3 3 2 2 2 2 2 2 2 3 3 3 3 3 3 3 3 2 2 2 2 1 1 1 1 1 2 2 2 1 1 2 2 2 2
6 6 5 5 5 5 4 3 3 3 3 2 2 2 2 3 3 3 3 3 3 3 3 3 3 4 4 3 2 2 2 1 1 1 2 2 2 2 1 1 2 2 2
6 6 6 6 5 4 4 3 3 3 3 3 2 2 2 2 3 3 3 3 2 2 2 3 3 4 4 4 3 3 2 2 1 1 1 1 2 1 2 2 2 2 2
5 5 5 4 4 4 4 3 3 3 3 3 3 3 3 3 3 4 3 2 2 3 3 3 3 3 3 4 3 4 4 3 3 2 2 2 3 3 2 1 1 1 2
5 4 4 4 4 4 5 4 4 4 3 3 3 3 3 4 4 5 5 3 3 3 3 2 2 2 1 1 2 2 2 3 4 4 4 4 3 3 2 2 2 2 3
3 3 2 3 4 4 4 4 4 3 3 3 3 4 3 4 5 5 5 3 3 3 3 3 3 2 2 2 2 1 1 2 2 3 4 4 4 3 3 3 3 2 3
3 3 3 4 3 3 3 4 4 3 3 3 3 3 3 4 4 4 4 2 2 3 3 3 3 3 2 3 3 2 1 2 3 2 2 3 3 3 1 0 0 0 2
3 3 3 3 4 4 4 3 3 3 3 3 3 3 3 3 3 3 3 2 2 3 2 3 3 3 3 4 4 3 2 3 2 2 2 2 2 2 2 2 3 2 2
3 2 2 3 3 4 3 2 2 2 2 2 2 2 2 3 3 3 4 3 3 2 2 2 2 4 4 5 4 4 4 3 2 1 1 1 1 1 1 1 2 3 3
2 2 2 2 3 2 2 2 2 2 2 2 2 2 2 2 3 3 4 4 3 3 3 3 3 4 4 5 4 3 3 2 1 1 1 1 1 2 2 2 2 2 3
2 2 2 2 2 2 2 2 2 2 2 3 2 3 3 2 2 3 3 4 3 2 2 3 3 4 4 3 3 2 2 1 1 1 1 2 2 2 2 1 2 1 2
2 2 2 2 2 1 2 2 2 3 3 3 3 3 3 2 2 2 2 2 2 1 1 1 1 2 1 1 1 1 1 1 2 2 1 2 2 1 1 1 1 1 1
1 1 2 2 2 2 2 2 3 3 4 4 4 4 3 3 4 5 3 3 2 2 1 1 1 1 0 1 1 1 0 0 0 1 1 1 1 1 2 1 1 0 1
1 1 2 2 2 2 1 1 1 1 2 3 4 4 4 4 3 4 3 3 3 3 2 1 1 1 2 1 1 1 1 1 1 1 1 1 1 1 2 1 1 1 1
2 2 2 2 2 2 2 2 1 2 2 0 2 3 3 2 2 3 3 3 3 5 2 1 2 2 2 1 1 1 1 2 1 1 1 1 1 1 1 1 1 1 1
2 2 2 2 2 3 3 3 2 2 1 1 2 1 1 2 3 3 4 5 2 1 1 2 2 2 2 2 2 1 1 1 1 1 1 1 1 1 1 1 1 1 1
2 2 2 2 2 2 2 2 2 2 2 1 1 2 2 2 3 3 4 2 2 2 1 1 1 2 1 1 2 2 2 1 1 1 1 1 1 1 1 1 1 1 1
2 2 1 1 1 1 1 1 1 1 1 1 1 1 1 1 1 1 1 0 1 1 2 2 1 1 1 1 1 1 1 1 1 1 1 1 1 1 1 1 1 1 1
1 1 0 0 1 1 1 1 1 1 1 2 2 2 4 2 2 2 2 1 1 2 1 1 1 1 1 1 1 1 1 1 1 1 1 1 1 1 1 1 1 1 1
0 0 0 0 0 0 1 1 1 1 1 2 1 1 2 1 1 1 1 1 1 1 1 2 1 1 1 2 2 1 1 1 1 1 1 1 1 1 0 0 1 1 0
1 1 1 1 0 1 1 1 0 1 1 1 2 2 1 1 1 1 1 1 1 1 1 1 1 1 0 1 2 2 2 2 2 1 1 1 1 1 1 0 0 0 0
1 1 1 1 1 1 1 1 1 1 1 1 1 1 1 2 1 1 1 1 1 0 1 1 1 1 0 0 0 0 1 1 1 1 2 2 1 1 1 0 0 1 1
1 1 1 1 1 1 1 1 1 0 1 1 1 1 1 1 1 1 1 1 1 1 1 1 1 1 1 1 1 0 0 1 1 0 1 1 1 1 1 1 1 1 1
1 1 2 2 2 1 1 1 1 1 1 1 1 1 1 1 1 1 1 1 2 1 1 2 2 2 2 1 1 2 1 1 1 1 1 1 1 1 1 1 1 1 1
Wind_Direction
185 186 187 187 188 181 185 195 192 190 189 194 196 190 190 189 184 174 192 184 188 224 231 201 225 224 216 224 209 197 193 171 214 274 285 287 289 292 307 285 261 242 250
181 175 178 182 187 189 197 201 194 193 196 199 192 186 184 186 188 190 208 208 204 221 236 224 235 221 220 231 206 211 215 196 182 244 283 291 273 260 258 265 280 275 250
173 172 175 183 193 204 208 200 188 186 195 204 190 191 198 196 195 201 201 208 212 222 227 225 231 208 221 229 221 220 226 219 181 194 263 272 277 271 286 291 287 276 271
173 175 180 190 201 209 207 197 193 188 193 206 205 211 215 213 208 204 197 205 215 226 227 224 222 213 214 210 210 214 206 192 195 204 258 274 267 271 254 277 298 295 285
170 180 191 193 193 195 197 194 193 194 202 203 207 221 224 222 221 203 204 210 212 231 241 237 234 228 224 213 205 195 187 184 198 219 256 280 280 273 258 255 276 293 285
170 187 191 184 184 188 195 193 197 203 206 201 214 222 227 236 230 210 204 213 213 219 235 245 246 244 231 212 193 185 179 184 198 210 238 245 259 250 249 251 258 299 294
174 183 187 183 188 194 197 195 204 208 204 208 216 215 230 243 234 221 213 206 211 219 225 231 247 249 208 197 179 169 217 223 200 195 214 235 238 234 223 244 236 233 248
160 168 182 193 199 200 195 200 206 203 203 211 220 224 232 248 234 223 216 212 218 227 224 216 223 233 217 186 188 197 246 269 247 226 220 234 236 232 213 221 230 253 273
162 174 182 189 194 193 200 209 207 198 210 213 219 221 228 253 236 223 207 204 227 243 238 229 217 222 212 162 166 189 265 298 289 275 247 259 259 260 230 151 289 299 284
193 199 196 189 190 200 211 212 204 198 209 208 221 224 220 240 241 216 185 192 226 250 255 246 221 209 207 184 183 189 212 256 280 319 320 316 294 285 261 198 193 209 249
202 195 198 200 201 203 206 207 201 205 212 215 221 235 227 228 230 203 180 187 210 228 243 246 239 217 216 212 206 209 220 224 229 236 272 305 316 306 283 243 214 204 222
180 184 200 209 211 207 199 209 205 196 208 222 224 244 249 240 226 224 214 214 212 211 230 239 238 225 227 226 224 226 216 203 202 201 229 270 273 276 279 274 253 240 231
172 199 211 214 213 197 189 202 212 208 213 227 224 236 252 253 246 238 223 224 233 227 233 239 243 229 221 226 235 213 175 167 163 186 233 254 255 257 271 294 314 305 296
188 214 210 211 222 220 202 201 205 212 216 222 224 232 243 244 242 239 236 227 241 261 261 254 222 195 191 211 233 203 196 190 183 205 231 258 271 277 281 275 285 315 334
202 223 217 213 209 215 219 215 215 221 211 208 217 214 213 235 241 225 209 211 205 203 149 68 52 74 358 338 337 320 266 179 207 248 236 256 269 280 275 264 239 276 276
214 247 231 218 213 205 210 281 292 247 247 221 218 212 224 231 220 200 205 195 170 146 125 171 214 218 216 219 225 254 252 232 237 227 222 230 248 262 281 292 276 240 252
212 225 229 217 209 207 207 205 234 333 12 326 244 227 219 203 170 166 153 136 143 145 141 192 211 217 221 225 223 220 237 242 230 213 227 234 228 245 262 276 284 283 273
228 222 223 223 215 208 214 218 207 199 243 321 348 338 220 172 155 139 123 109 111 164 191 197 217 218 212 213 221 223 228 228 216 217 227 238 236 246 272 269 261 244 254
236 235 226 223 218 205 203 214 215 200 185 178 19 13 22 86 101 114 129 129 172 201 225 225 215 209 211 212 216 216 212 212 209 208 227 246 246 238 256 259 255 262 248
241 268 253 211 204 187 185 203 217 199 171 170 176 160 117 85 95 154 231 219 190 216 221 214 218 209 200 201 213 205 197 200 203 221 240 242 241 229 231 240 238 242 252
256 272 339 163 180 176 181 206 212 200 188 184 190 182 165 168 185 202 216 225 214 217 222 223 222 222 212 193 180 178 180 206 220 229 237 244 239 238 231 225 235 231 244
196 80 113 153 91 331 153 190 199 190 185 162 142 129 156 144 170 202 220 228 234 234 218 204 207 214 206 199 198 194 194 212 233 228 228 221 197 193 207 237 254 248 226
59 62 47 40 65 74 84 96 149 147 145 138 134 137 157 171 184 206 223 232 232 239 230 185 167 179 218 211 203 190 190 206 220 210 201 197 181 176 161 170 216 274 283
65 74 67 69 72 78 73 61 80 105 120 122 132 158 179 193 191 192 197 190 173 122 58 80 134 147 98 18 220 205 194 203 203 184 174 177 182 179 162 161 229 270 261
57 88 78 68 77 84 82 65 50 103 131 144 155 160 173 172 167 168 166 144 123 94 63 61 84 109 118 125 120 115 123 108 115 163 179 180 190 204 213 231 240 273 291
34 81 86 83 79 86 95 82 57 75 103 113 122 127 127 132 130 123 121 108 101 87 76 72 70 82 80 85 89 87 81 63 69 92 128 149 171 212 218 241 250 259 271